Terminal Aerodrome Forecast
Issued by NWS Shreveport, LA

Home | Current Version | Previous Version | Text Only | Print | Product List | Glossary On
Versions: 1 2 3 4 5 6 7 8 9 10 11 12
000
FTUS44 KSHV 291737
TAFTXK
TAF
KTXK 291737Z 2918/3018 20007KT P6SM SCT110 BKN150
     FM300000 16004KT P6SM SCT110 BKN150
     FM301200 20005KT P6SM BKN100=

USA.gov is the U.S. government's official web portal to all federal, state and local government web resources and services.